Return to main menu page
Advertisement


ISS - Orbit Data

View from orbit pole
View from above orbital plane

View from above satellite
View from above satellite

Ground track

Ground track

The orbit data is extracted from the following two-line orbital elements,

1 25544U 98067A   10251.67840275  .00014329  00000-0  11349-3 0  8582
2 25544 051.6462 163.4153 0008075 350.5822 090.8301 15.71582578676609

Epoch (UTC): 4:16:54 PM, Wednesday, September 08, 2010
Eccentricity: 0.0008075
Inclination: 051.6462°
Perigee Height: 349 km
Apogee Height: 360 km
Right Ascension of Ascending Node: 163.4153°
Argument of Perigee: 350.5822°
Revolutions per Day: 15.71582578
Mean Anomaly at Epoch: 090.8301°
Orbit Number at Epoch: 67660

The dashed part of the orbit path shows where the satellite is in the earth's shadow, and the full part is where it is sunlit.


Developed and maintained by Chris Peat, Heavens-Above GmbH
Please read the updated FAQ before sending e-mail.
GSOC Home Page